Flag for Canada Weather past 2 weeks in Gander, Newfoundland and Labrador, Canada

Now
28 °F

Passing clouds.


Feels Like: 16 °F
Forecast: 26 / 30 °F
Wind: 17 mph from West

Location: Gander Int. Airport

Current Time: Dec 28, 2014 at 1:48:40 AM

Latest Report: Dec 28, 2014 at 1:30 AM


Visibility: 20 mi

Pressure: 29.67 "Hg

Humidity: 64%

Dew point: 18 °F

Location of GanderLocation

Historic Weather in Gander — Graph

°F

Gander temperature yesterday

Maximum temperature yesterday: 34 °F (at 11:30 AM)
Minimum temperature yesterday: 28 °F (at 1:30 AM)
Average temperature yesterday: 31 °F

Past Weeks' High & Low Weather Summary

 TemperatureHumidityPressure
High52 °F (Dec 13, 12:30 PM)100% (Dec 12, 11:30 PM)30.52 "Hg (Dec 12, 11:30 PM)
Low18 °F (Dec 23, 8:30 AM)64% (Dec 27, 3:30 PM)29.18 "Hg (Dec 19, 7:30 AM)
Average33 °F91%29.95 "Hg
* Reported Dec 12 11:30 PM — Dec 27 11:30 PM, Gander, Weather by CustomWeather, © 2014

Note: Actual official high and low records may vary slightly from our data, if they occured in-between our weather recording intervals... More about our weather records

Advertising

Gander weather history for previous 24 hours

 ConditionsComfort  
Time TempWeatherWind HumidityBarometerVisibility
11:30 PM
Dec 27
28 °FOvercast.17 mph69%29.66 "Hg20 mi
10:30 PM28 °FOvercast.16 mph69%29.65 "Hg20 mi
9:30 PM28 °FOvercast.17 mph69%29.64 "Hg20 mi
8:30 PM28 °FOvercast.21 mph69%29.63 "Hg20 mi
7:30 PM30 °FOvercast.20 mph69%29.62 "Hg20 mi
6:30 PM30 °FOvercast.21 mph64%29.60 "Hg20 mi
5:30 PM30 °FSnow flurries. Passing clouds.13 mph69%29.59 "Hg20 mi
4:30 PM32 °FPassing clouds.16 mph64%29.56 "Hg20 mi
3:30 PM32 °FPartly sunny.14 mph64%29.54 "Hg20 mi
2:30 PM30 °FScattered clouds.14 mph75%29.52 "Hg20 mi
1:30 PM32 °FSnow flurries. Partly sunny.17 mph69%29.52 "Hg20 mi
12:30 PM32 °FPartly sunny.17 mph75%29.52 "Hg15 mi
11:30 AM34 °FBroken clouds.18 mph70%29.54 "Hg20 mi
10:30 AM32 °FBroken clouds.16 mph75%29.55 "Hg20 mi
9:30 AM32 °FSnow flurries. Partly sunny.16 mph75%29.55 "Hg12 mi
8:30 AM32 °FSnow flurries. Partly sunny.13 mph75%29.54 "Hg15 mi
7:30 AM32 °FSnow flurries. Mostly cloudy.12 mph75%29.54 "Hg12 mi
6:30 AM32 °FOvercast.16 mph75%29.54 "Hg15 mi
5:30 AM32 °FOvercast.15 mph75%29.53 "Hg15 mi
4:30 AM30 °FOvercast.15 mph80%29.52 "Hg15 mi
3:30 AM30 °FPassing clouds.15 mph80%29.52 "Hg15 mi
2:30 AM30 °FPassing clouds.14 mph75%29.52 "Hg15 mi
1:30 AM28 °FPassing clouds.13 mph80%29.52 "Hg15 mi
Weather by CustomWeather, © 2014

See weather overviewHow to use our weather pages